Location: Norton
(51.3000°N, 0.8167°E)
Time: 12:33:38
(UTC+00:00)

ARIANE 5 R/B - Pass Details

Date: 03 March 2021
Orbit: 621 x 655 km, 98.2° (Epoch: 15 April)

Event Time Altitude Azimuth Distance (km) Brightness Sun altitude
Exits shadow 20:21:41 27° 21° (NNE) 1,276 4.1 -25.4°
Drops below altitude 10° 20:24:05 10° 359° (N) 2,076 5.5 -25.8°
Sets 20:26:26 0° 352° (N) 2,994 6.5 -26.1°
